Regional Weather Roundup
Issued by NWS

Home | Current Version | Previous Version | Text Only | Print | Product List | Glossary On
Versions: 1 2 3 4 5 6 7 8 9 10 11 12 13 14 15 16 17 18 19 20 21 22 23 24 25 26 27 28 29 30 31 32 33 34 35 36 37 38 39 40 41 42 43 44 45 46 47 48 49 50
000
ASUS43 KLOT 310508
RWRIL

ILLINOIS REGIONAL WEATHER ROUNDUP
NATIONAL WEATHER SERVICE CHICAGO/ROMEOVILLE IL
1200 AM CDT MON AUG 31 2015

NOTE: "FAIR" INDICATES FEW OR NO CLOUDS BELOW 12,000 FEET WITH NO
SIGNIFICANT WEATHER AND/OR OBSTRUCTIONS TO VISIBILITY.

* THESE STATIONS ARE NOT UNDER NWS QUALITY CONTROL. THEY ALSO MAY NOT
  REPORT WEATHER SUCH AS PRECIPITATION OR FOG.

ILZ001-002-007-009-015-016-024-310600-
NORTHWEST ILLINOIS

CITY           SKY/WX    TMP DP  RH WIND       PRES   REMARKS
MOLINE         CLEAR     63  61  93 CALM      30.02S FOG
STERLING*        N/A    N/A N/A N/A MISG        N/A
SAVANNA*       FOG       62  61  94 CALM      30.02S VSB 3/4
$$

ILZ003-004-008-010-011-017-018-310600-
NORTH CENTRAL ILLINOIS

CITY           SKY/WX    TMP DP  RH WIND       PRES   REMARKS
ROCKFORD       CLEAR     63  60  90 SE3       30.05S
FREEPORT*      CLEAR     59  58  97 CALM      30.05S FOG
ROCHELLE*      CLEAR     60  60  99 CALM      30.05R
DE KALB*       FOG       63  62  98 CALM      30.06R VSB 1/4
PERU*          CLEAR     64  61  91 CALM      30.04S FOG
$$

ILZ005-006-012>014-019>023-310600-
NORTHEAST ILLINOIS

CITY           SKY/WX    TMP DP  RH WIND       PRES   REMARKS
CHICAGO-OHARE  CLEAR     64  63  96 SE3       30.04S FOG
CHICAGO-MIDWAY CLEAR     69  64  84 E3        30.04R
AURORA         FOG       60  59  96 CALM      30.05S VSB 1/4
LANSING*       CLEAR     64  64  99 CALM      30.04S FOG
JOLIET*        FOG       62  62  99 CALM      30.04S VSB 1/4
WAUKEGAN       PTCLDY    61  61 100 SW3       30.03F FOG
DUPAGE AIRPORT CLEAR     62  59  90 CALM      30.04S FOG
KANKAKEE*        N/A     65  64  98 CALM      30.04S FOG
WHEELING       CLEAR     62  59  90 CALM      30.05S FOG
MORRIS*        CLEAR     63  62  96 CALM      30.03S FOG
ROMEOVILLE*      N/A     64  64  99 CALM      30.05R FOG
NORTHERLY ISL    N/A     65  63  93 NW1         N/A
$$

LMZ740>746-310600-
SOUTHERN LAKE MICHIGAN

STATION/POSITION SKY/WX   TEMP    WIND        PRES    VSBY  WAVE
                          AIR SEA DIR/SP/G                  HT/PER
                          (F)     (DEG/KT/KT) (MB)    (MI)  (FT/S)
SOUTHERN BUOY              68 69  170/  6/  8 1016.8R         0
WILMETTE HARBOR            61 61  360/  2/  2   N/A           1
HARRISON CRIB              68     120/  6/  7   N/A
BURNHAM HARBOR             66      CALM  /  2   N/A
BURNS HARBOR               68     110/  7/  8 1017.6F
MICHIGAN CITY              66      60/  2/  3   N/A
MICHIGAN CITY 6N           69 71  100/  4/  6   N/A           1
ST. JOSEPH                 69 71  160/  4/  6   N/A           1
$$

ILZ025>027-034>036-040-047-049-050-058-095>099-310600-
WEST-CENTRAL ILLINOIS

CITY           SKY/WX    TMP DP  RH WIND       PRES   REMARKS
QUINCY         CLEAR     73  69  87 E6        30.01S
GALESBURG*     CLEAR     67  65  93 E5        30.03S
MACOMB*        CLEAR     65  64  95 CALM      30.04S
JACKSONVILLE*  CLEAR     71  68  92 E5        30.02S
PITTSFIELD*    CLEAR     70  69  94 CALM      30.02S FOG
$$

ILZ028>032-037-038-041>044-048-051>054-059>061-310600-
CENTRAL ILLINOIS

CITY           SKY/WX    TMP DP  RH WIND       PRES   REMARKS
PONTIAC        CLEAR     65  65  99 CALM      30.04S FOG
BLOOMINGTON    CLEAR     68  68 100 E5        30.05S FOG
DECATUR        MOCLDY    74  67  78 S5        30.04R
PEORIA         CLEAR     70  65  84 E5        30.03R
LACON*         CLEAR     64  62  94 CALM      30.03R FOG
LINCOLN*       CLEAR     69  66  89 CALM      30.02S FOG
SPRINGFIELD    CLEAR     69  67  93 N3        30.02S
TAYLORVILLE    CLEAR     70  68  94 SE5       30.03R
$$

ILZ033-039-045-046-055>057-062-063-310600-
EAST-CENTRAL ILLINOIS

CITY           SKY/WX    TMP DP  RH WIND       PRES   REMARKS
CHAMPAIGN      CLOUDY    70  67  90 CALM      30.05S
RANTOUL*       CLEAR     73  70  92 CALM      30.04S FOG
MATTOON        PTCLDY    73  67  81 S6        30.04S HAZE
PARIS*         MOCLDY    68  66  95 S3        30.05S
$$

ILZ079-100>102-310600-
SOUTHWEST ILLINOIS

CITY           SKY/WX    TMP DP  RH WIND       PRES   REMARKS
ALTON          CLEAR     71  69  94 S3        30.02S
BELLEVILLE     PTCLDY    75  74  99 CALM      30.01S
CAHOKIA*       MOCLDY    74  70  87 SE3       30.01S
SPARTA*        PTCLDY    74  71  91 S6        30.04S
$$

ILZ064>066-069>071-074>076-080>082-084>086-088>090-092>094-310600-
SOUTH-CENTRAL ILLINOIS

CITY           SKY/WX    TMP DP  RH WIND       PRES   REMARKS
CARBONDALE     CLEAR     72  68  87 S5        30.04S
CAIRO*         PTCLDY    69  69 100 SE3       30.05S
EFFINGHAM*     CLOUDY    71  67  87 CALM      30.06R
MARION         CLEAR     72  68  88 S3        30.05S
MT. VERNON     CLEAR     72  64  78 S5        30.05S
SALEM*         MOCLDY    75  69  81 S5        30.04R
METROPOLIS*    PTCLDY    70  69  97 CALM      30.06S
$$

ILZ067-068-072-073-078-083-087-091-310600-
SOUTHEAST ILLINOIS

CITY           SKY/WX    TMP DP  RH WIND       PRES   REMARKS
LAWRENCEVILLE  CLEAR     70  68  93 CALM      30.05S
FLORA*         CLEAR     70  67  91 CALM      30.05R
FAIRFIELD*     PTCLDY    71  69  93 S3        30.04S
HARRISBURG*    CLEAR     68  67  95 CALM      30.05F
ROBINSON*      CLEAR     67  65  94 CALM      30.06S
CARMI*         PTCLDY    68  67  98 SE5       30.05S
$$

ABBREVIATIONS USED IN REMARKS
   TC - TEMPERATURE IN CELSIUS
  WCI - WIND CHILL INDEX
   HX - HEAT INDEX
  VSB - VISIBILITY
$$




USA.gov is the U.S. government's official web portal to all federal, state and local government web resources and services.